Content
SEND FEEDBACK

Daily
Averages
Monthly
Summary
United States of America

BUCKEYE, ARIZONA


Home > North America > United States > Arizona
Elevation: 889 feet     Latitude: 33 22N     Longitude: 112 34W

WEATHER
 
SELECT A DAY
Number of Records: 110,883;   Date Range: 9/1/09 - 7/9/14
 
SHARE

PRINT THIS DATA

[ ← Previous Day ]
WEATHER ALMANAC - FEBRUARY 13, 2013
[ Next Day → ]
[ °C ]   °F
Weather ElementAverageHighLow
Temperature47.1 °F60.8 °F (3:15 pm)35.6 °F (4:55 am)
Dewpoint27.5 °F35.6 °F (12:35 am)19.4 °F (1:35 pm)
Humidity51.3 %87 % (12:35 am)20 % (4:15 pm)
Barometer30.17 in30.24 in (10:15 am)30.11 in (4:35 pm)
Wind Speed3.2 mph9.2 mph (12:35 am)
Weather ElementAverage
Visibility10 mi
Wind DirectionESE (120.9 °)

Weather ElementTotal
Precipitation---
Heating Degree Days16.8 (Base 65)
Averaged from 68 records on February 13, 2013
WEATHER CONDITIONS BREAKOUT
WIND DIRECTION BREAKOUT
WEATHER BY HOUR - FEBRUARY 13, 2013
[ °C ]   °F
Local TimeTemperatureDewpointHumidityBarometerVisibilityWind DirectionWind SpeedGust SpeedPrecipitationEventsConditions
12:35 AM39.2 °F35.6 °F87 %30.21 in10.0 miNNW (340°)9.2 mphClear
12:55 AM39.2 °F33.8 °F81 %30.21 in10.0 miNNW (340°)6.9 mphClear
1:15 AM39.2 °F32.0 °F75 %30.21 in10.0 miNorth (350°)8.1 mphClear
1:35 AM39.2 °F30.2 °F70 %30.20 in10.0 miNorth (350°)8.1 mphClear
1:55 AM37.4 °F32.0 °F81 %30.20 in10.0 miNNE (20°)8.1 mphClear
2:15 AM37.4 °F30.2 °F75 %30.21 in10.0 miNE (40°)4.6 mphClear
2:35 AM39.2 °F28.4 °F65 %30.20 in10.0 miNorth (10°)3.5 mphClear
2:55 AM37.4 °F28.4 °F70 %30.20 in10.0 miCalmClear
3:15 AM39.2 °F28.4 °F65 %30.19 in10.0 miCalmClear
3:35 AM39.2 °F24.8 °F56 %30.19 in10.0 miNNW (330°)6.9 mphClear
3:55 AM39.2 °F23.0 °F52 %30.19 in10.0 miNorth (10°)6.9 mphClear
4:15 AM37.4 °F24.8 °F60 %30.18 in10.0 miNorth (350°)5.8 mphClear
4:35 AM37.4 °F26.6 °F65 %30.19 in10.0 miNW (320°)4.6 mphClear
4:55 AM35.6 °F30.2 °F81 %30.19 in10.0 miNNE (20°)6.9 mphClear
5:15 AM35.6 °F30.2 °F81 %30.19 in10.0 miNorth (360°)6.9 mphClear
5:35 AM35.6 °F30.2 °F81 %30.19 in10.0 miCalmClear
6:15 AM37.4 °F28.4 °F70 %30.19 in10.0 miCalmClear
6:35 AM39.2 °F24.8 °F56 %30.20 in10.0 miNW (320°)3.5 mphClear
6:55 AM35.6 °F26.6 °F70 %30.20 in10.0 miCalmClear
7:15 AM35.6 °F32.0 °F87 %30.20 in10.0 miEast (90°)3.5 mphClear
7:35 AM35.6 °F32.0 °F87 %30.21 in10.0 miEast (80°)3.5 mphClear
7:55 AM37.4 °F32.0 °F81 %30.21 in10.0 miEast (90°)3.5 mphClear
8:15 AM39.2 °F32.0 °F75 %30.22 in10.0 miCalmClear
8:35 AM41.0 °F30.2 °F65 %30.23 in10.0 miCalmClear
8:55 AM41.0 °F32.0 °F70 %30.22 in10.0 miWSW (250°)3.5 mphClear
9:15 AM42.8 °F32.0 °F66 %30.23 in10.0 miCalmClear
9:35 AM44.6 °F32.0 °F61 %30.23 in10.0 miCalmClear
9:55 AM46.4 °F28.4 °F50 %30.23 in10.0 miCalmClear
10:15 AM46.4 °F28.4 °F50 %30.24 in10.0 miCalmClear
10:35 AM48.2 °F28.4 °F46 %30.23 in10.0 miEast (80°)3.5 mphClear
10:55 AM50.0 °F28.4 °F43 %30.23 in10.0 miSE (140°)3.5 mphClear
11:15 AM50.0 °F26.6 °F40 %30.23 in10.0 miCalmClear
11:55 AM53.6 °F24.8 °F33 %30.22 in10.0 miWNW (290°)3.5 mphClear
12:15 PM53.6 °F24.8 °F33 %30.21 in10.0 miCalmClear
12:55 PM55.4 °F23.0 °F29 %30.18 in10.0 miNorth (10°)3.5 mphClear
1:15 PM57.2 °F23.0 °F27 %30.17 in10.0 miNW (310°)3.5 mphClear
1:35 PM57.2 °F19.4 °F23 %30.16 in10.0 miNW (320°)3.5 mphClear
1:55 PM59.0 °F23.0 °F25 %30.15 in10.0 miSW (230°)4.6 mphClear
2:15 PM59.0 °F19.4 °F22 %30.15 in10.0 miSE (130°)3.5 mphClear
2:35 PM59.0 °F19.4 °F22 %30.14 in10.0 miCalmClear
2:55 PM59.0 °F21.2 °F23 %30.13 in10.0 miWest (270°)3.5 mphClear
3:15 PM60.8 °F21.2 °F22 %30.13 in10.0 miCalmClear
3:35 PM60.8 °F23.0 °F23 %30.12 in10.0 miCalmClear
3:55 PM60.8 °F21.2 °F22 %30.12 in10.0 miCalmClear
4:15 PM60.8 °F19.4 °F20 %30.12 in10.0 miSW (220°)4.6 mphClear
4:35 PM60.8 °F19.4 °F20 %30.11 in10.0 miSouth (170°)3.5 mphClear
4:55 PM60.8 °F19.4 °F20 %30.11 in10.0 miSSW (210°)4.6 mphClear
5:15 PM60.8 °F23.0 °F23 %30.11 in10.0 miSouth (190°)3.5 mphClear
5:35 PM59.0 °F26.6 °F29 %30.11 in10.0 miSouth (170°)5.8 mphClear
5:55 PM57.2 °F28.4 °F33 %30.11 in9.0 miSouth (190°)3.5 mphClear
6:15 PM57.2 °F30.2 °F36 %30.11 in10.0 miSouth (180°)3.5 mphClear
6:35 PM55.4 °F28.4 °F36 %30.11 in10.0 miSouth (180°)3.5 mphClear
6:55 PM55.4 °F26.6 °F33 %30.11 in10.0 miCalmClear
7:15 PM53.6 °F28.4 °F38 %30.11 in10.0 miCalmClear
7:35 PM51.8 °F32.0 °F47 %30.11 in10.0 miCalmClear
7:55 PM50.0 °F30.2 °F47 %30.11 in10.0 miNNE (30°)3.5 mphClear
8:15 PM48.2 °F28.4 °F46 %30.11 in10.0 miNNE (30°)3.5 mphClear
8:35 PM48.2 °F28.4 °F46 %30.12 in10.0 miNorth (360°)4.6 mphClear
8:55 PM46.4 °F28.4 °F50 %30.11 in10.0 miNorth (10°)4.6 mphClear
9:15 PM46.4 °F28.4 °F50 %30.12 in10.0 miNNE (20°)4.6 mphClear
9:35 PM46.4 °F28.4 °F50 %30.12 in10.0 miNorth (10°)5.8 mphClear
9:55 PM46.4 °F30.2 °F53 %30.12 in10.0 miNNE (30°)4.6 mphClear
10:15 PM46.4 °F30.2 °F53 %30.12 in10.0 miNE (50°)3.5 mphClear
10:35 PM46.4 °F30.2 °F53 %30.13 in10.0 miCalmClear
10:55 PM44.6 °F30.2 °F57 %30.13 in10.0 miCalmClear
11:15 PM44.6 °F28.4 °F53 %30.12 in10.0 miCalmClear
11:35 PM42.8 °F30.2 °F61 %30.12 in10.0 miNorth (360°)4.6 mphClear
11:55 PM41.0 °F30.2 °F65 %30.13 in10.0 miNorth (360°)5.8 mphClear
Hourly data recorded from KBXK, located miles away from Buckeye, Arizona







STORIES FROM OUR PARTNERS